Wind_Speed
21 21 22 22 22 22 20 20 20 19 18 17 17 16 15 14 13 13 12 12 11 11 11 11 10 11 11 10 9 7 6 6 7 7 7 6 7 6 4 4 5 6 5 6 6 6 5 4 3 5 6 3 2 3 4 5 3 2 2 3 1 1 0 3 3 4 6 5 6 12 12 9 6 6 10 9 8 11 9 7 7 7 8 7 6 7 8 10
23 22 22 22 22 22 21 20 19 19 18 17 16 16 15 14 14 13 13 12 12 11 11 11 11 11 11 10 9 7 5 6 7 8 8 7 6 6 4 4 6 6 6 7 8 8 6 4 2 3 4 2 2 3 3 4 4 2 3 3 2 3 1 4 0 4 6 8 10 14 13 7 8 12 11 6 6 10 8 6 8 7 8 9 9 9 8 10
23 23 22 23 22 22 21 20 19 18 18 17 17 16 15 14 14 13 13 12 12 11 11 11 11 11 11 10 8 6 5 5 6 8 9 7 6 5 5 5 6 7 7 7 8 8 6 4 3 4 4 3 3 4 3 3 4 2 3 3 3 5 2 7 6 5 6 15 13 11 10 5 9 14 11 6 6 8 7 8 10 11 12 12 12 12 11 12
23 23 22 23 23 22 21 19 19 18 18 17 17 16 15 15 14 13 13 12 12 11 11 11 11 12 11 10 8 6 4 3 5 8 8 7 6 6 6 5 6 7 6 7 7 6 7 6 4 5 3 3 4 5 4 4 4 1 3 4 4 4 2 4 6 8 8 18 15 11 8 7 10 12 10 8 5 4 11 15 13 13 15 15 16 15 14 14
24 24 23 23 23 23 21 20 19 19 18 18 17 16 15 15 14 13 13 12 12 12 12 11 11 12 11 10 8 6 4 1 2 6 8 8 7 6 6 6 6 7 7 7 6 6 8 8 5 4 2 2 5 4 3 6 6 2 2 3 1 3 3 2 2 8 9 15 14 10 6 7 11 10 10 9 6 4 10 17 17 13 13 14 16 17 17 16
24 24 24 24 23 23 22 21 20 19 19 18 17 16 16 15 14 13 13 12 12 12 12 12 12 12 11 11 9 7 6 2 1 3 7 9 8 7 7 7 7 6 7 7 7 8 8 8 4 4 2 2 5 4 3 8 7 2 1 4 6 3 5 2 3 6 7 11 11 7 4 7 9 7 8 10 9 5 3 8 13 12 11 14 15 16 19 18
23 25 25 24 24 23 23 22 21 20 19 18 17 17 16 15 14 13 13 12 12 12 12 12 12 12 12 11 9 8 8 5 1 1 5 9 7 7 7 7 7 7 8 7 8 8 7 7 5 5 2 0 4 5 4 7 6 4 1 2 6 5 6 4 5 6 6 8 7 5 5 5 5 4 6 10 13 10 6 5 7 7 8 13 15 16 16 15
23 24 24 24 24 23 23 23 22 21 20 19 18 17 16 15 14 13 13 12 12 12 12 13 13 12 12 11 9 7 8 7 4 1 5 8 7 8 8 8 8 8 9 8 7 6 5 6 7 7 2 1 6 6 5 4 2 3 2 3 6 5 5 4 6 6 4 5 4 3 3 2 2 2 5 11 14 13 13 12 12 9 6 12 15 14 14 14
22 23 24 24 24 24 24 23 23 22 21 20 19 18 17 15 14 14 13 13 12 12 12 13 13 13 12 11 8 5 6 7 5 2 6 8 8 9 9 10 10 9 9 8 7 5 5 4 4 5 1 2 7 6 4 4 1 1 6 7 8 6 6 6 6 6 4 3 3 2 2 2 1 1 6 13 14 14 16 14 13 12 10 11 13 14 14 14
21 22 23 24 25 25 25 24 23 23 22 20 19 18 17 15 14 14 13 13 13 13 13 13 13 13 13 11 8 4 4 6 7 5 7 9 10 9 10 10 10 10 8 7 8 7 6 3 1 4 2 2 5 4 4 5 1 4 10 10 9 8 7 6 5 6 5 2 2 2 2 3 1 1 6 11 8 10 16 17 15 14 14 14 14 15 16 16
21 22 23 25 25 26 26 25 24 23 22 21 20 18 17 15 14 13 13 13 13 13 13 13 13 13 13 11 9 5 3 7 9 8 10 10 10 9 10 11 11 9 6 7 8 7 6 3 2 4 2 2 5 4 5 6 4 8 12 8 6 7 5 5 5 6 5 2 2 2 2 4 1 2 10 13 8 7 12 18 18 17 16 16 16 17 17 19
19 21 23 24 25 26 26 25 25 23 22 21 20 18 17 15 13 12 12 12 13 13 13 14 14 14 13 11 11 8 3 8 11 11 13 12 10 10 9 10 10 8 6 6 7 6 6 4 3 3 3 5 4 3 5 6 5 7 9 5 1 2 1 6 6 7 6 2 4 3 4 6 2 7 14 13 9 9 9 15 19 18 18 17 17 17 17 18
19 20 21 23 24 25 25 25 25 23 22 21 19 17 16 14 13 12 12 12 13 13 14 14 14 14 12 8 10 9 4 9 14 13 15 13 11 10 9 9 8 7 6 6 6 6 7 5 5 5 6 6 3 4 5 5 6 4 3 4 2 4 3 8 6 7 5 3 6 4 2 6 6 13 18 14 10 11 11 14 18 18 18 18 17 17 18 18
18 19 20 22 23 25 25 25 24 23 21 20 18 17 15 14 13 12 12 12 13 14 14 14 14 14 12 6 7 10 8 11 15 15 15 14 12 10 8 7 6 6 5 5 6 6 6 6 6 5 7 7 6 8 5 3 3 2 1 3 3 2 4 6 4 7 5 3 6 5 1 7 8 14 15 11 11 11 14 16 17 18 18 18 18 19 20 20
19 19 20 22 23 25 24 24 24 22 21 19 17 16 15 14 13 12 12 13 13 14 14 15 15 12 9 5 5 9 11 14 16 16 15 13 12 10 8 7 6 6 5 6 7 6 7 7 6 5 7 8 9 7 3 3 2 3 2 3 2 3 3 7 2 8 5 3 5 5 1 6 9 11 7 4 9 11 14 15 16 18 18 19 20 20 22 21
20 20 21 22 23 24 24 24 24 22 21 18 17 16 15 15 13 12 12 13 13 14 14 13 15 11 6 4 6 9 13 15 16 17 16 13 12 10 9 8 7 7 7 7 7 7 8 7 7 7 7 6 5 5 4 4 4 3 3 2 3 3 2 4 2 4 4 3 3 3 2 4 5 5 1 5 8 10 12 13 14 17 18 18 19 20 22 22
21 21 21 22 23 24 24 24 24 22 20 18 17 16 16 14 13 13 13 13 13 13 13 11 13 11 4 4 8 11 15 16 17 18 16 14 12 10 9 9 8 8 8 9 8 8 8 6 6 5 3 2 3 5 5 2 3 3 1 2 4 3 4 2 3 3 4 5 2 3 3 6 7 9 10 8 9 11 14 15 17 18 20 20 20 22 24 24
20 21 22 22 23 23 24 24 23 22 20 19 17 16 16 14 13 14 13 15 14 13 11 10 12 7 5 8 9 11 15 16 17 18 17 15 12 11 10 9 9 8 8 8 6 7 5 4 4 2 2 3 2 5 4 3 4 3 3 2 3 1 3 4 3 4 5 4 2 2 4 9 11 14 20 21 18 16 18 21 23 24 25 25 25 26 26 26
19 20 21 22 22 23 24 24 23 21 20 19 17 17 15 14 13 13 15 17 16 10 5 11 15 5 2 12 13 11 16 16 15 18 18 16 13 12 10 8 8 7 6 4 2 4 5 4 4 2 1 2 3 5 6 7 7 6 6 5 3 1 2 3 3 3 4 3 4 5 6 9 10 11 17 24 24 21 22 24 26 28 28 29 29 29 28 28
19 20 21 21 22 24 24 25 23 21 21 19 19 18 14 14 10 7 14 18 17 8 1 12 20 5 2 14 18 14 15 15 15 18 19 17 15 13 11 9 7 4 2 4 3 2 4 4 2 4 5 6 6 7 7 6 6 7 5 4 3 2 3 4 2 2 2 2 5 7 7 9 10 9 14 24 25 20 21 22 25 29 29 30 29 29 28 29
20 20 20 21 23 24 24 25 23 22 22 20 22 19 14 16 9 4 12 14 16 10 1 11 21 7 2 12 19 17 15 13 15 19 19 18 17 12 10 8 5 2 1 5 5 2 4 3 4 7 8 8 7 8 7 4 5 6 5 4 3 0 2 4 2 3 2 1 5 4 5 11 10 9 14 20 17 18 23 23 25 29 28 29 29 30 30 30
19 18 19 22 24 25 25 25 24 24 24 23 26 20 15 20 14 10 15 9 14 14 3 10 17 8 5 10 16 16 12 9 11 18 20 19 17 11 10 7 4 3 2 4 6 4 3 2 7 9 7 5 2 4 7 5 6 5 4 4 2 2 2 3 3 3 2 1 4 4 5 12 12 9 13 19 17 22 29 26 26 28 27 30 32 32 33 32
19 17 19 22 23 25 25 26 26 26 26 25 26 21 16 22 16 13 16 7 10 17 10 11 14 11 10 11 16 16 11 9 10 18 21 20 18 13 11 8 4 4 2 4 6 4 2 5 9 9 6 6 4 4 8 5 4 4 4 5 1 3 1 2 4 4 2 1 3 5 5 10 12 8 10 19 23 28 32 30 29 30 30 33 34 32 32 31
17 17 18 21 22 23 24 26 28 27 27 26 26 21 17 22 17 14 16 4 2 14 17 14 12 14 14 11 16 16 11 10 11 18 23 22 19 13 10 9 6 4 4 5 8 6 4 6 5 5 5 7 5 4 7 5 1 1 3 6 3 3 3 3 2 3 3 4 3 4 6 7 7 6 7 10 12 18 26 26 28 31 31 33 33 31 30 29
14 17 18 20 20 21 24 25 28 28 28 27 25 20 18 20 17 15 13 2 2 6 13 15 12 14 17 13 15 15 10 8 9 16 24 24 20 11 7 10 7 3 6 7 7 5 6 5 2 7 4 5 7 3 3 6 1 3 2 5 6 5 4 2 3 4 5 5 3 3 4 6 5 6 7 6 3 8 13 14 22 27 25 26 27 26 25 24
12 15 18 19 19 21 21 21 26 28 27 28 24 19 20 18 16 16 11 4 2 3 5 12 11 12 17 14 16 15 6 5 7 15 25 24 19 12 6 6 4 3 7 6 4 2 3 0 4 7 5 6 7 2 3 6 5 1 4 4 6 6 6 5 5 4 1 3 4 2 2 6 7 6 10 9 7 8 8 8 18 24 21 21 22 21 20 18
12 14 17 18 19 21 18 16 26 29 24 26 22 18 20 18 15 16 8 6 3 5 6 9 10 12 15 14 20 14 3 7 8 13 25 22 16 13 6 4 3 3 5 4 2 2 2 4 5 5 5 5 5 2 4 6 7 3 5 2 5 7 6 4 6 3 3 3 5 1 3 4 6 7 11 12 10 10 9 10 15 21 23 22 22 19 18 16
11 13 15 15 15 18 16 15 24 28 23 24 22 17 17 18 16 13 7 3 2 6 6 8 10 13 15 18 23 13 8 15 10 9 24 21 14 10 5 5 6 5 4 6 4 4 1 5 5 6 5 3 5 4 5 8 7 5 5 4 6 7 6 5 6 2 1 2 5 4 2 3 6 7 6 5 7 9 11 12 13 18 22 21 20 18 15 13
10 11 13 15 15 16 15 14 21 26 22 22 22 16 15 18 15 8 4 1 3 4 3 9 11 12 16 18 16 11 12 11 5 10 22 18 13 8 4 6 7 6 3 5 5 4 0 4 5 6 5 4 4 2 3 6 5 4 3 6 6 5 5 5 5 2 3 2 5 5 5 2 6 6 2 2 3 8 10 10 10 15 20 18 16 14 12 10
12 11 14 17 17 17 15 13 17 22 19 18 21 18 16 16 10 6 3 3 2 2 3 9 10 11 17 13 5 7 9 3 5 14 14 10 10 7 5 5 4 4 0 5 4 2 2 1 1 3 4 5 5 3 4 4 8 7 5 7 7 6 5 4 3 4 3 4 6 8 9 4 4 5 4 4 4 8 8 5 7 12 15 13 11 9 9 9
15 14 17 18 17 16 15 13 14 18 18 16 20 22 15 8 4 4 5 3 1 2 3 4 5 10 17 13 5 5 4 3 8 13 8 5 6 4 5 4 4 4 2 3 2 4 5 2 0 1 4 6 7 5 7 6 7 7 5 5 4 4 5 5 5 4 1 5 7 7 6 4 5 6 3 5 6 5 7 5 6 8 5 7 10 9 7 7
21 19 17 16 14 13 13 13 12 16 19 18 23 23 12 4 1 4 4 2 1 4 5 4 4 7 12 9 6 6 5 3 6 8 6 5 5 4 5 5 4 4 1 3 2 4 3 2 2 2 2 5 7 5 5 6 5 5 5 6 4 2 3 3 3 0 3 6 6 4 1 3 7 6 5 7 8 6 7 7 6 5 6 8 8 7 7 7
20 23 21 16 13 12 12 11 12 15 19 21 24 18 7 3 5 7 4 2 2 3 5 6 6 7 9 7 5 5 4 3 5 5 4 4 5 6 4 4 7 4 2 5 4 1 2 6 1 3 2 5 7 6 3 1 0 5 5 6 4 3 1 3 3 1 4 5 5 2 1 3 5 4 7 9 9 8 7 7 6 3 4 6 7 8 8 8
12 18 23 20 14 13 12 12 12 13 18 25 21 9 4 5 6 7 7 4 1 2 3 6 8 9 8 5 5 6 4 1 6 5 4 5 5 6 5 5 6 3 4 4 3 6 4 5 4 5 3 8 8 6 8 6 4 5 5 6 6 5 5 5 4 3 5 4 4 3 1 3 2 3 7 7 8 9 9 11 12 12 13 10 9 10 10 12
11 13 18 19 16 16 15 14 13 12 19 24 14 4 6 8 5 6 6 4 1 2 4 7 9 9 6 2 3 7 4 1 6 5 4 6 6 6 6 6 7 5 5 5 2 4 5 5 6 4 5 12 11 7 9 8 2 3 3 5 4 6 6 3 3 6 4 2 3 2 4 5 4 6 8 6 9 10 10 10 11 16 18 14 13 14 14 14
13 15 17 17 18 17 16 17 15 14 19 19 9 4 9 7 3 5 5 4 3 4 7 7 5 5 5 2 3 7 2 2 6 4 3 4 3 6 7 6 10 10 7 7 2 2 4 4 4 0 2 8 8 6 7 6 3 2 3 4 5 5 7 3 3 0 3 2 4 2 5 6 3 7 9 8 11 11 9 9 10 17 19 16 18 20 18 16
11 14 18 19 19 17 17 18 15 15 17 12 6 7 6 4 2 3 2 3 8 9 9 5 2 4 6 3 4 7 3 2 5 5 4 3 2 6 7 5 9 13 12 9 4 3 5 2 4 2 2 5 2 2 1 1 4 5 4 6 3 2 3 3 1 2 2 4 5 2 7 7 2 5 5 1 7 9 7 8 12 17 18 18 21 22 20 19
11 11 14 19 19 17 17 16 15 16 15 8 7 7 3 2 1 4 3 0 7 9 6 4 3 4 6 5 4 6 5 4 6 5 4 3 4 8 10 5 8 16 18 12 4 3 5 3 4 1 2 4 2 2 1 3 2 5 4 4 4 2 1 2 2 2 1 3 5 4 5 5 6 7 3 2 6 8 9 9 9 13 18 21 22 20 18 15
10 8 7 12 16 18 18 17 17 19 12 5 9 7 1 1 1 6 6 4 2 4 4 5 3 2 5 7 5 5 5 6 8 6 4 4 5 7 13 10 8 16 22 16 6 2 3 4 4 2 1 2 3 2 6 2 1 1 2 2 2 3 4 3 3 4 4 4 5 4 3 4 6 7 6 8 11 10 11 10 8 13 20 21 20 17 12 8
9 5 2 6 13 17 19 18 17 14 7 2 6 3 1 1 1 4 6 6 4 2 2 4 3 4 5 5 5 5 5 5 8 6 4 6 5 4 10 12 6 10 19 17 8 1 2 4 4 2 3 0 2 4 8 9 6 3 3 4 2 1 2 2 2 3 4 4 3 4 6 8 5 5 8 11 12 11 12 10 9 14 20 19 17 14 10 4
8 3 2 7 11 16 21 18 11 6 3 1 2 1 1 2 3 2 4 4 3 3 1 1 3 5 6 5 5 5 5 4 7 6 3 6 7 4 8 15 10 7 10 9 7 5 3 3 4 2 0 4 6 6 6 10 10 7 7 8 8 6 4 3 4 2 2 3 5 3 8 10 4 5 7 9 9 10 11 10 10 15 20 17 12 10 8 5
7 2 2 8 12 17 21 11 3 4 3 2 2 3 2 1 3 2 2 2 1 1 2 1 1 2 4 6 6 6 6 5 6 6 4 7 10 6 9 18 20 17 12 8 10 10 6 4 4 3 4 5 6 5 2 6 6 3 4 6 6 6 6 6 6 4 1 3 4 3 5 9 3 4 6 6 7 8 12 14 12 12 13 9 5 4 5 4
7 3 2 7 14 21 18 6 2 4 2 2 4 4 5 4 1 1 1 1 2 1 0 1 1 1 1 1 4 7 8 6 7 9 7 7 10 10 11 17 21 17 11 6 7 7 4 3 3 2 3 3 4 5 4 1 1 3 4 3 4 4 4 5 5 4 3 5 5 3 6 9 4 1 3 2 1 3 8 12 11 8 6 4 2 1 2 8
6 5 3 7 16 21 13 3 3 5 2 4 5 4 6 5 3 4 4 3 3 2 2 0 1 2 1 2 2 5 6 5 7 10 8 5 6 9 11 16 18 12 8 9 9 9 7 3 4 3 1 3 3 4 4 3 0 3 4 4 6 7 6 4 2 3 2 7 9 6 8 9 4 4 3 4 5 3 4 7 7 2 2 3 2 3 8 15
4 4 5 8 18 23 14 4 2 5 6 6 5 6 8 4 7 12 8 3 5 3 1 2 1 2 0 2 4 0 1 2 4 7 7 5 3 2 4 12 18 15 12 14 16 14 8 4 5 7 6 7 6 5 5 3 2 2 4 8 11 11 11 7 3 4 6 9 8 6 10 10 3 3 5 5 5 4 4 3 4 8 10 9 6 8 14 17
4 2 3 7 13 17 15 10 4 2 5 8 5 5 8 5 5 13 12 5 7 8 4 4 1 2 1 1 2 2 1 1 2 2 3 4 3 1 1 4 12 15 13 15 18 14 4 3 9 10 11 12 11 8 6 7 7 7 10 12 12 11 13 10 5 6 11 10 7 9 13 15 11 3 1 4 3 4 6 6 8 7 6 7 8 11 15 18
3 1 3 4 6 9 9 11 8 3 4 8 5 4 9 7 2 6 12 9 10 12 6 3 4 3 4 5 3 2 3 2 1 1 2 2 3 3 2 2 4 7 7 10 17 12 3 3 10 12 14 14 10 7 9 12 13 14 15 13 12 12 13 13 11 14 13 8 9 13 12 15 18 10 7 9 6 4 7 9 10 9 7 9 13 18 24 25
4 2 4 5 4 3 4 8 10 6 5 6 4 3 8 10 6 5 9 8 8 12 7 3 7 10 9 9 6 4 3 2 0 1 1 1 1 3 3 3 3 2 1 4 8 7 4 6 9 10 13 14 8 5 8 12 12 13 15 16 15 15 16 17 19 20 15 10 12 15 12 15 21 12 9 12 10 8 10 12 13 12 12 16 22 27 31 30
7 5 6 5 3 0 1 5 10 8 6 6 4 3 6 10 11 8 6 4 4 9 10 6 9 13 13 10 7 6 6 4 3 4 2 0 1 1 1 0 2 5 4 3 1 1 3 5 5 6 9 12 9 6 7 9 7 5 9 12 13 16 19 21 22 22 18 13 14 18 15 18 19 7 8 12 13 11 10 11 14 16 19 23 25 27 28 28
9 6 5 2 2 2 2 1 7 7 6 6 5 5 6 8 11 8 6 8 5 5 10 12 12 12 12 11 9 9 10 9 7 6 5 3 1 1 2 2 0 4 5 3 2 2 2 3 0 4 5 10 9 6 5 6 5 2 5 6 9 14 17 19 18 16 14 13 16 18 16 17 14 4 6 13 13 9 11 15 20 25 27 24 21 23 26 26
12 9 6 1 1 4 3 1 4 4 5 7 7 7 7 8 9 6 5 11 13 7 10 15 13 8 9 11 11 12 15 14 13 13 11 10 6 5 3 2 1 3 3 1 2 3 0 1 2 4 4 9 7 6 5 4 4 2 8 10 12 12 10 12 12 12 13 15 15 14 13 15 11 4 4 12 11 8 14 20 23 26 27 22 19 24 28 27
18 13 8 1 1 2 3 3 3 4 4 7 8 8 7 7 7 6 3 8 16 18 17 18 13 6 6 10 16 23 27 25 25 26 21 17 14 11 9 8 6 2 1 1 2 2 2 2 1 2 4 10 7 6 7 4 2 5 12 15 17 12 6 6 9 13 15 12 10 10 12 15 11 3 4 11 9 8 16 24 26 25 21 17 20 26 29 26
Wind_Direction
184 186 190 193 195 193 187 184 185 185 185 186 188 189 191 192 195 198 202 205 207 208 209 208 201 194 191 190 189 186 190 190 188 187 179 179 184 186 200 203 188 179 168 160 152 142 126 117 119 119 129 138 130 133 163 194 193 150 99 94 227 237 120 284 235 174 143 154 178 177 173 148 151 158 137 124 129 139 145 158 159 170 174 164 149 137 152 173
187 187 189 193 197 197 191 187 187 187 187 189 191 193 196 198 201 203 205 207 208 209 209 207 200 193 191 191 190 185 191 193 194 196 189 183 188 199 206 193 185 180 172 162 152 145 129 110 118 140 152 160 148 148 152 174 175 157 97 102 215 199 70 347 27 137 128 156 173 179 180 165 175 172 157 155 155 151 147 163 176 181 185 186 176 165 172 179
189 190 189 192 198 200 194 190 189 189 190 191 193 195 198 201 204 206 208 210 210 209 208 206 199 193 192 192 189 185 190 199 206 205 199 195 196 203 202 191 185 182 177 170 165 161 143 124 168 189 190 209 189 168 157 153 173 182 86 102 239 200 112 19 47 69 136 159 163 177 184 177 178 171 165 172 164 168 178 179 187 200 202 202 196 187 186 189
191 191 190 192 197 201 197 192 190 191 192 193 195 196 198 202 205 207 210 211 211 210 207 205 198 191 192 190 184 184 185 206 219 211 206 203 206 209 202 197 187 184 182 181 187 186 162 138 162 204 219 222 189 174 177 162 174 168 113 160 230 179 112 13 45 54 123 156 161 166 157 148 167 170 171 164 144 211 219 203 205 213 211 208 206 203 200 201
192 192 192 193 196 200 199 194 192 193 194 195 195 197 199 201 205 207 209 211 211 210 206 202 196 192 192 188 183 178 160 122 225 207 206 205 211 216 205 198 188 185 185 180 185 187 179 162 164 208 239 221 165 161 200 180 164 96 106 139 108 137 112 332 63 65 110 147 150 146 129 145 162 166 173 172 163 215 231 222 222 224 219 213 208 207 209 210
194 193 193 194 195 199 200 196 194 194 195 196 196 198 200 202 206 207 209 210 210 209 205 200 194 192 191 187 184 180 170 142 120 192 205 206 214 215 201 195 185 183 180 175 179 179 179 172 182 217 203 195 172 158 177 183 171 110 103 78 65 127 128 156 154 87 109 132 127 124 125 149 151 161 186 203 204 185 190 209 215 221 223 219 212 207 208 211
196 195 195 194 194 198 200 197 195 196 196 197 198 199 200 203 205 208 210 209 210 208 203 197 192 193 190 186 185 192 203 215 281 319 199 200 211 204 191 185 175 174 169 168 175 168 169 177 207 222 187 187 184 164 156 172 161 123 176 86 83 111 115 146 166 121 114 121 119 125 141 152 147 164 199 222 221 206 205 210 221 232 214 207 210 208 209 212
199 196 196 195 195 197 200 199 197 196 197 198 198 201 202 203 205 208 210 209 209 205 201 196 192 193 188 187 188 197 219 231 263 286 181 188 195 186 178 172 165 163 161 164 165 159 184 205 224 226 228 243 176 160 149 138 110 105 143 138 115 106 111 145 163 151 136 122 130 151 172 181 157 175 222 236 231 218 225 241 249 253 222 198 202 204 206 211
205 199 198 197 195 196 199 201 199 197 198 198 199 201 202 203 205 207 209 209 206 202 200 195 194 193 187 188 190 198 222 225 233 194 168 176 177 175 173 166 161 162 163 167 169 177 207 215 229 223 234 202 157 134 123 120 39 146 144 143 129 121 127 134 148 155 160 152 158 187 253 275 161 232 258 248 241 226 225 235 240 240 231 214 211 214 217 223
212 205 201 200 197 196 198 200 200 199 198 198 199 201 202 203 204 207 209 207 204 200 197 196 195 191 186 188 184 194 221 210 207 182 157 165 170 167 166 161 157 158 160 173 182 188 196 177 154 178 142 103 129 107 99 121 123 133 136 135 130 138 144 143 149 150 150 151 149 168 263 282 168 146 259 247 236 225 221 225 232 233 232 231 231 234 238 241
215 210 206 204 199 198 199 199 200 200 199 198 199 201 201 203 205 208 209 206 203 197 196 198 195 189 188 190 189 197 200 186 189 171 152 156 158 158 159 158 156 156 153 171 188 188 182 178 145 163 159 111 118 98 97 115 114 124 128 119 127 143 152 168 163 164 165 138 156 157 303 296 75 159 252 248 236 232 219 217 227 231 232 234 238 244 247 249
219 214 210 208 204 200 200 200 199 200 201 199 200 202 201 203 205 208 209 205 200 195 197 198 192 189 189 194 202 203 183 179 179 161 154 152 151 156 154 154 157 160 155 160 180 183 174 182 170 152 138 141 133 91 107 122 114 124 123 103 119 83 143 207 186 181 185 147 164 122 347 301 252 222 252 265 249 236 218 213 221 228 233 237 242 246 248 250
224 218 213 210 207 203 201 201 200 199 201 201 201 201 201 202 204 207 209 203 198 196 198 197 191 188 186 198 211 208 200 185 177 162 158 156 157 161 154 152 155 159 159 152 160 168 172 178 160 122 111 134 134 117 132 124 114 134 121 100 98 23 317 234 197 179 175 145 168 127 332 279 264 246 261 279 256 227 213 211 216 225 234 240 245 248 251 252
224 220 215 210 207 205 203 201 200 198 199 201 200 200 200 200 202 205 205 201 197 197 198 195 189 186 188 199 211 209 203 185 180 171 165 164 164 163 158 154 151 152 153 151 151 153 164 170 159 117 106 125 124 125 117 75 100 128 56 61 96 98 287 270 187 164 157 171 181 121 175 259 278 275 279 273 241 218 211 212 214 223 233 241 248 252 256 256
226 221 215 209 206 204 204 201 199 198 198 199 197 198 197 197 200 201 202 200 196 197 196 193 188 183 190 207 208 200 192 184 184 180 174 171 169 166 157 152 150 149 143 146 149 147 155 163 163 127 106 119 120 115 76 23 22 66 87 322 337 147 258 304 190 168 163 201 194 124 173 266 277 286 303 223 213 211 216 222 222 229 236 243 251 254 256 258
227 221 215 209 204 203 202 200 199 198 197 197 194 194 194 196 198 197 199 196 194 195 191 191 189 179 177 205 201 185 182 186 186 184 181 177 177 170 154 147 144 144 141 139 140 146 156 148 134 123 116 124 118 96 65 37 344 5 116 226 275 157 224 305 281 193 158 153 208 188 211 272 274 275 297 163 198 211 218 232 234 239 243 244 249 252 254 256
226 218 213 207 203 202 199 198 198 197 196 195 193 192 192 194 193 193 193 191 190 186 183 187 186 184 198 202 189 183 184 185 186 187 184 182 181 167 155 151 140 138 135 134 135 142 153 134 119 128 115 98 99 91 77 46 302 310 63 218 239 180 169 239 287 241 147 121 218 234 222 254 264 275 274 250 239 230 227 241 248 249 250 249 251 253 253 252
222 214 209 203 200 199 197 196 195 195 196 193 190 189 189 190 189 188 186 184 177 166 174 179 167 177 236 208 185 186 190 187 185 186 182 181 178 163 160 154 143 140 132 132 134 135 138 110 104 102 31 16 64 97 109 199 200 204 199 205 261 251 174 204 251 221 156 125 223 225 245 256 264 278 276 272 270 255 242 247 254 255 254 255 255 254 254 252
217 213 206 199 197 196 193 192 192 193 192 188 186 182 179 176 174 178 180 177 168 152 172 182 167 158 229 191 183 184 190 187 182 181 179 178 174 167 159 146 149 145 125 129 127 134 132 79 76 93 118 232 206 142 166 196 168 160 172 157 157 176 254 239 251 230 151 137 236 226 238 254 260 272 272 272 273 264 254 252 252 254 255 255 256 256 255 253
216 211 202 196 194 192 191 189 189 188 185 182 178 171 166 158 146 162 178 177 172 161 333 186 180 177 104 171 179 176 178 180 177 176 178 179 174 167 153 144 152 138 110 153 152 151 123 87 121 189 197 206 213 186 177 180 141 125 119 103 130 138 298 277 266 296 98 127 246 234 240 257 257 262 264 267 272 269 261 254 251 252 254 255 256 257 257 256
216 210 200 193 189 187 188 185 183 181 179 179 175 169 166 166 154 163 177 180 183 174 41 182 183 190 140 174 181 172 161 165 175 177 178 178 172 163 160 151 132 131 248 152 127 93 100 107 216 217 203 198 217 199 159 127 96 93 107 85 11 338 269 272 254 300 29 82 264 270 279 271 258 254 263 265 268 264 256 251 252 254 255 257 258 260 261 263
210 206 195 189 185 182 182 180 178 178 177 179 178 174 178 182 185 185 173 179 196 187 151 176 185 191 164 175 181 171 154 148 172 182 177 173 172 171 170 151 120 174 214 116 101 53 64 201 238 232 207 165 173 153 123 100 87 83 105 100 4 274 248 306 329 333 26 109 271 314 312 281 271 254 255 255 249 254 256 252 254 256 257 259 259 261 263 265
201 197 189 185 181 177 176 174 174 177 178 180 179 177 182 185 190 186 174 163 196 199 203 187 190 193 170 165 176 173 164 157 173 183 178 173 174 174 166 150 144 168 139 126 133 103 107 242 244 230 187 120 76 83 95 79 77 87 103 115 240 271 206 285 311 311 298 221 283 320 316 285 283 275 257 253 246 252 259 259 260 260 259 260 262 264 265 265
196 188 183 178 175 172 170 172 174 176 179 179 179 180 181 182 183 179 175 151 162 201 211 202 193 200 189 171 176 177 172 175 183 183 179 176 172 167 169 166 154 150 170 168 146 146 205 257 238 180 136 116 110 79 90 98 27 335 129 140 203 249 185 199 286 317 325 344 338 341 326 291 290 294 277 270 255 252 258 260 261 258 256 259 263 264 264 265
188 181 178 171 169 168 168 174 175 175 178 178 178 178 175 177 180 175 171 130 21 198 208 205 201 207 201 187 181 176 162 170 187 185 182 179 170 158 174 180 163 170 201 175 135 159 235 271 156 139 106 96 118 127 140 139 141 311 238 181 185 178 151 115 23 28 18 339 320 32 350 293 303 303 277 291 306 260 259 256 254 255 253 255 259 263 265 266
181 174 174 170 167 165 168 175 176 176 179 179 175 168 166 167 168 173 164 57 319 203 177 192 198 200 198 192 176 162 149 184 185 184 181 179 176 162 159 180 164 186 195 167 134 177 225 313 97 130 128 99 105 139 207 146 121 269 259 214 173 133 100 77 55 53 55 268 268 92 121 270 300 293 265 268 271 268 275 265 254 254 253 253 259 266 267 266
182 175 174 172 167 164 165 172 179 179 180 181 173 157 160 158 150 163 150 31 287 188 148 178 186 187 192 183 169 156 146 174 154 174 178 176 181 173 170 186 145 186 185 129 153 237 141 101 76 95 106 104 118 172 215 144 124 219 259 178 127 101 99 107 85 92 215 260 305 332 155 255 288 263 252 253 259 273 277 269 261 257 257 259 263 267 266 264
179 178 177 172 164 166 169 174 182 181 180 184 174 154 157 159 150 150 129 40 214 155 145 177 172 179 182 171 171 161 134 152 142 175 178 173 178 172 181 196 164 191 183 124 185 257 125 153 165 138 116 134 171 220 212 142 119 241 243 118 111 107 115 111 93 104 299 5 311 292 155 245 271 258 261 252 249 266 261 252 256 259 260 261 262 263 262 256
167 169 168 163 160 172 178 179 184 184 184 185 177 160 151 155 151 131 101 125 170 127 144 168 163 174 170 163 172 154 132 148 143 166 174 175 178 171 174 189 170 185 187 120 171 242 66 174 185 147 142 187 196 265 222 150 139 208 175 79 67 71 75 75 89 86 26 359 262 228 173 230 271 250 227 112 222 245 249 252 255 256 258 261 262 254 241 229
161 153 159 162 163 178 184 179 184 186 182 180 179 168 148 148 144 117 157 210 171 119 120 155 166 168 158 153 173 154 133 129 122 142 161 174 172 163 146 151 124 139 114 48 107 244 345 93 134 119 148 174 150 65 35 125 139 132 94 59 45 29 33 41 58 73 48 292 255 208 189 203 285 262 202 171 210 219 222 248 264 261 262 256 241 220 210 209
181 165 166 169 171 179 180 176 183 184 178 172 173 167 149 138 115 130 185 205 108 128 115 148 175 161 159 159 170 162 116 78 137 139 145 158 156 142 134 139 68 72 20 25 64 323 348 46 344 117 134 127 107 58 30 60 106 102 80 77 61 353 10 17 0 45 101 257 262 237 200 184 246 273 258 248 263 231 196 204 236 250 244 204 193 192 197 208
198 192 183 173 172 176 174 174 178 178 176 170 165 162 148 110 174 205 195 142 137 186 165 171 187 167 166 158 151 154 120 128 166 151 147 151 162 177 170 177 155 102 250 207 184 323 326 260 244 100 152 150 115 77 24 13 40 80 99 101 91 329 8 356 306 340 218 245 263 265 216 211 242 257 256 265 279 252 211 205 203 181 162 170 188 212 217 219
205 202 201 190 178 175 169 166 167 170 173 168 162 155 127 118 200 218 211 180 187 187 154 151 156 152 150 145 156 159 119 146 181 164 152 144 163 202 230 223 184 153 181 183 158 165 276 303 304 98 270 205 154 133 147 272 128 135 137 132 138 145 144 250 255 280 264 262 279 283 193 253 280 277 240 240 250 254 266 265 250 232 224 228 238 242 239 242
223 209 206 203 196 186 179 170 161 163 170 166 159 145 131 181 208 209 212 222 163 83 103 124 129 139 153 161 175 163 116 145 176 147 131 139 155 206 235 242 210 139 107 152 165 170 201 287 215 174 199 187 183 180 162 148 159 181 156 135 158 167 167 205 205 213 247 277 298 295 224 207 221 275 249 243 261 279 303 285 264 267 266 262 262 257 257 258
237 229 213 208 207 200 198 192 173 163 169 165 153 142 180 194 217 203 200 206 132 55 77 112 120 136 173 189 177 177 157 174 179 147 144 170 178 193 195 208 201 166 134 167 207 168 187 255 231 203 172 169 181 189 152 121 116 222 134 119 191 193 155 161 194 184 182 312 298 244 230 215 204 268 271 277 281 279 285 277 260 258 257 255 261 261 260 260
221 226 219 215 216 214 214 211 197 177 172 163 149 192 202 201 203 185 178 164 158 125 106 110 108 129 176 182 191 202 183 113 167 160 180 196 203 195 192 205 196 186 178 175 187 154 167 268 272 154 167 180 181 176 160 155 176 185 153 175 207 173 131 140 251 226 99 257 272 207 249 279 319 283 264 248 260 273 289 286 264 254 252 253 259 262 265 268
198 208 214 215 219 225 223 221 218 196 178 165 173 203 203 213 195 147 156 153 149 140 128 138 149 143 170 179 193 201 186 106 161 172 191 201 239 201 197 226 201 193 197 187 199 189 151 245 287 122 198 239 221 160 162 118 136 138 188 202 168 89 98 121 219 343 45 253 271 215 239 269 288 268 283 257 256 276 290 272 259 257 253 250 254 259 264 269
187 197 212 213 216 224 221 223 223 198 175 165 206 213 191 221 197 65 20 168 143 140 141 166 162 144 171 183 190 187 172 161 177 187 182 186 239 203 182 205 203 199 204 192 200 229 153 198 291 58 193 267 357 131 225 341 106 146 189 186 124 126 227 118 156 204 185 241 273 257 242 250 222 227 282 324 262 265 265 253 250 253 247 243 248 255 259 266
188 194 218 213 209 214 218 222 210 184 161 162 208 213 214 234 109 58 28 357 116 145 169 184 169 144 178 176 160 166 176 175 175 183 178 182 233 207 181 190 203 201 200 186 185 234 144 188 260 334 238 290 24 165 198 222 334 43 85 121 109 140 174 170 166 171 171 205 254 268 260 250 224 198 188 225 241 244 244 241 233 238 239 238 242 246 248 266
181 181 226 200 194 204 211 213 200 172 142 181 206 210 3 329 346 44 39 29 38 84 182 200 173 157 180 180 156 164 182 175 171 183 196 188 212 238 193 187 187 194 192 185 186 193 115 198 227 322 340 229 178 214 194 175 172 165 156 181 200 112 115 170 194 152 148 171 211 264 272 263 240 178 176 205 226 228 226 228 229 233 235 237 240 240 237 262
169 170 222 175 171 189 195 195 188 156 118 205 210 249 343 328 320 350 24 24 28 41 61 205 190 167 165 175 178 174 164 161 176 186 208 198 205 248 205 188 175 154 164 179 196 195 194 197 171 149 278 203 219 243 206 184 184 178 179 191 191 171 143 174 241 238 127 167 178 197 268 268 231 186 198 206 222 228 217 210 218 234 236 232 231 237 243 267
165 160 206 173 167 176 180 179 136 121 146 192 169 163 175 239 299 311 343 11 57 33 19 17 260 192 157 171 182 166 156 168 186 187 204 212 209 217 203 189 177 160 152 176 202 194 173 113 127 180 213 212 241 276 218 198 211 212 206 195 184 180 162 168 215 228 147 224 200 146 261 270 249 174 198 208 224 221 208 204 209 229 233 220 214 239 256 306
173 180 173 181 182 175 172 175 112 132 165 181 156 152 169 182 238 263 243 196 130 139 72 28 353 29 81 168 171 162 167 181 194 195 205 220 217 218 209 189 176 165 159 179 199 185 153 110 145 208 321 330 317 335 4 37 199 232 240 184 150 188 179 157 184 182 164 222 210 159 247 262 291 244 174 146 121 146 176 191 181 166 169 163 166 205 14 357
185 213 224 194 186 178 175 185 173 173 178 143 146 176 190 199 229 210 205 212 191 136 105 236 350 49 66 39 110 178 190 191 202 204 202 210 221 221 211 194 181 171 172 185 180 170 175 186 152 143 308 319 334 335 329 334 223 213 230 193 177 188 171 140 157 156 197 225 197 190 239 248 290 334 359 26 19 45 141 163 149 129 296 307 13 26 357 342
172 222 249 217 193 188 192 207 156 168 175 162 160 177 179 200 231 217 215 226 212 194 163 233 337 52 88 24 33 331 200 149 195 212 209 211 226 212 189 192 188 186 198 197 177 164 174 193 163 164 203 219 222 221 211 204 180 204 226 206 195 187 175 177 187 177 225 232 197 195 241 245 259 3 5 9 359 307 262 256 294 299 300 310 339 350 337 326
158 196 237 233 220 209 206 211 209 164 168 175 176 175 178 181 216 212 212 223 223 219 227 237 220 55 265 273 345 326 306 81 133 203 229 221 235 317 61 179 187 189 200 193 173 159 149 211 192 192 206 213 219 217 174 143 155 200 220 208 199 194 185 181 178 197 219 230 219 220 237 250 251 223 240 284 291 276 274 290 295 281 283 312 331 334 325 316
163 185 180 188 242 246 227 217 214 195 164 175 173 173 186 185 144 192 200 206 209 203 208 238 210 199 218 217 231 250 241 261 91 104 268 230 245 303 3 64 147 172 180 176 171 160 116 218 206 205 218 223 221 204 168 159 177 201 210 204 199 196 187 185 201 216 216 215 237 234 226 248 254 231 215 251 259 263 273 280 284 285 301 316 319 314 309 307
190 229 211 181 190 239 237 217 206 200 187 177 177 171 179 186 186 181 192 206 202 188 189 229 211 211 220 211 213 224 215 251 323 192 260 291 316 340 1 30 37 41 88 152 165 152 138 211 211 204 224 234 224 190 180 181 191 201 204 204 201 194 189 197 211 221 214 201 236 240 214 231 251 235 204 233 235 226 249 269 281 289 298 301 302 301 300 301
208 235 237 221 209 258 312 193 183 194 201 186 195 193 175 189 198 190 172 168 203 195 193 208 209 210 218 210 203 216 208 203 223 209 186 179 223 92 107 200 19 16 28 81 115 91 147 211 213 183 221 241 228 204 191 186 192 211 213 209 203 198 199 204 213 222 220 212 233 244 234 239 251 228 179 224 235 233 251 275 284 284 285 287 290 291 291 292
207 224 234 257 246 249 326 172 168 184 200 197 212 209 193 199 200 194 171 164 185 200 195 214 219 202 208 210 201 217 221 211 220 213 162 131 224 191 168 200 158 19 21 48 6 354 169 217 176 127 208 247 231 195 171 158 151 215 251 233 213 210 211 215 219 222 224 227 233 243 253 256 252 194 182 232 243 259 277 278 277 279 280 282 283 283 281 280
203 205 217 321 305 217 238 225 167 174 188 200 215 205 202 211 195 184 190 190 195 187 184 211 221 196 198 208 202 219 224 214 221 223 188 166 195 209 187 195 128 60 22 18 27 13 88 212 35 88 203 243 225 159 145 125 107 242 264 248 228 217 208 217 225 220 219 226 231 237 251 257 248 172 217 258 257 261 273 271 270 274 276 278 279 278 278 280
208 204 209 219 0 217 192 166 178 199 194 202 216 207 201 210 184 166 201 213 209 209 205 207 208 190 189 200 206 221 223 217 224 232 219 203 212 212 203 221 227 180 104 53 47 19 87 104 69 116 197 243 234 142 127 109 96 242 244 235 230 222 190 193 222 227 223 219 224 230 236 252 260 211 227 271 272 256 265 270 270 269 269 271 276 278 282 287
Height
1482 1483 1485 1488 1490 1491 1492 1493 1495 1497 1498 1500 1502 1503 1505 1506 1507 1509 1510 1511 1512 1513 1514 1515 1516 1517 1518 1519 1520 1521 1522 1522 1523 1523 1524 1524 1525 1526 1527 1528 1529 1529 1530 1531 1531 1531 1532 1532 1532 1532 1533 1533 1534 1534 1535 1536 1536 1537 1539 1543 1546 1546 1545 1542 1541 1539 1539 1542 1543 1543 1543 1544 1545 1546 1547 1548 1550 1550 1551 1552 1552 1552 1553 1554 1554 1555 1555 1556
1480 1482 1484 1487 1489 1491 1491 1492 1494 1496 1498 1499 1501 1503 1504 1505 1506 1508 1509 1510 1511 1512 1513 1514 1515 1517 1518 1519 1519 1520 1521 1521 1522 1522 1523 1524 1525 1526 1527 1527 1528 1529 1530 1530 1530 1530 1531 1531 1532 1533 1533 1533 1533 1534 1534 1535 1536 1537 1539 1543 1545 1545 1543 1541 1539 1538 1537 1540 1541 1542 1543 1544 1544 1545 1546 1548 1549 1550 1551 1551 1552 1552 1552 1553 1554 1554 1555 1556
1479 1481 1483 1485 1488 1490 1491 1492 1493 1495 1496 1498 1500 1501 1503 1504 1506 1507 1508 1509 1510 1512 1512 1513 1515 1516 1517 1518 1519 1519 1520 1520 1521 1521 1522 1523 1524 1525 1526 1527 1527 1528 1529 1530 1530 1530 1530 1531 1532 1533 1533 1533 1533 1534 1534 1535 1536 1536 1539 1543 1543 1542 1541 1540 1540 1538 1537 1538 1540 1542 1543 1543 1544 1545 1546 1547 1549 1549 1549 1550 1550 1551 1551 1551 1553 1553 1554 1555
1478 1481 1482 1484 1487 1489 1490 1491 1492 1494 1495 1497 1499 1500 1502 1503 1505 1506 1507 1509 1510 1511 1512 1513 1514 1515 1516 1517 1518 1519 1519 1520 1519 1520 1521 1522 1523 1524 1525 1526 1527 1528 1528 1529 1529 1530 1530 1531 1532 1532 1533 1533 1533 1534 1534 1535 1536 1536 1538 1542 1541 1540 1540 1540 1540 1539 1538 1538 1539 1541 1543 1544 1544 1545 1546 1546 1549 1549 1548 1547 1548 1548 1549 1550 1551 1552 1553 1554
1477 1479 1481 1483 1485 1488 1489 1490 1491 1492 1494 1496 1497 1499 1501 1502 1504 1505 1506 1508 1509 1510 1511 1512 1513 1514 1515 1516 1517 1518 1519 1520 1519 1519 1520 1521 1523 1524 1524 1525 1526 1527 1527 1528 1529 1529 1530 1531 1531 1532 1532 1533 1533 1534 1534 1534 1535 1536 1538 1539 1539 1539 1540 1540 1540 1539 1539 1539 1540 1541 1543 1544 1544 1545 1545 1545 1547 1547 1545 1545 1545 1546 1547 1548 1549 1550 1551 1552
1477 1478 1480 1482 1484 1486 1488 1489 1490 1491 1493 1495 1497 1498 1500 1501 1503 1504 1505 1507 1508 1509 1510 1511 1513 1514 1515 1516 1516 1517 1518 1519 1518 1518 1520 1521 1522 1523 1524 1524 1525 1526 1527 1528 1528 1529 1530 1530 1531 1531 1532 1532 1533 1533 1534 1534 1534 1537 1539 1539 1538 1538 1539 1540 1540 1540 1540 1540 1540 1541 1543 1543 1544 1545 1545 1544 1544 1545 1544 1543 1544 1545 1546 1547 1548 1549 1549 1550
1475 1477 1479 1481 1483 1485 1487 1488 1489 1490 1492 1494 1495 1497 1498 1500 1501 1503 1504 1506 1507 1508 1510 1511 1512 1513 1514 1515 1516 1517 1517 1517 1517 1518 1519 1520 1521 1522 1523 1524 1525 1526 1526 1527 1528 1529 1530 1530 1530 1531 1531 1532 1533 1533 1533 1534 1534 1537 1539 1539 1539 1539 1539 1540 1540 1540 1540 1540 1540 1541 1542 1543 1543 1544 1544 1543 1543 1543 1543 1543 1544 1545 1546 1546 1547 1548 1548 1549
1474 1476 1478 1480 1482 1484 1486 1487 1488 1489 1491 1493 1495 1496 1497 1499 1500 1502 1503 1505 1506 1508 1509 1510 1511 1512 1513 1514 1515 1516 1516 1516 1517 1518 1518 1519 1521 1521 1522 1523 1524 1525 1526 1527 1528 1528 1529 1530 1530 1530 1531 1532 1531 1532 1533 1534 1535 1536 1538 1539 1539 1539 1539 1540 1540 1540 1540 1540 1541 1541 1542 1542 1543 1543 1543 1541 1541 1542 1542 1542 1543 1544 1544 1545 1546 1546 1547 1548
1473 1475 1477 1479 1480 1482 1485 1486 1487 1489 1490 1492 1494 1495 1496 1498 1499 1501 1502 1504 1505 1507 1508 1509 1510 1512 1513 1514 1514 1515 1515 1516 1517 1517 1518 1519 1520 1521 1522 1523 1524 1525 1526 1527 1527 1528 1529 1529 1529 1530 1531 1531 1531 1532 1532 1534 1536 1536 1537 1538 1539 1539 1540 1540 1540 1540 1540 1540 1541 1541 1541 1542 1542 1543 1541 1538 1539 1540 1541 1541 1541 1542 1543 1544 1545 1545 1546 1546
1472 1474 1476 1477 1479 1481 1483 1485 1487 1488 1490 1491 1493 1494 1495 1497 1498 1500 1501 1503 1504 1506 1507 1508 1510 1511 1512 1513 1514 1514 1514 1515 1516 1517 1518 1519 1520 1521 1522 1523 1524 1525 1525 1526 1527 1528 1528 1528 1529 1529 1530 1530 1530 1532 1532 1534 1536 1535 1536 1538 1538 1539 1540 1540 1540 1540 1540 1541 1541 1541 1542 1541 1541 1543 1539 1536 1536 1538 1539 1540 1540 1540 1541 1542 1543 1543 1544 1544
1470 1472 1474 1476 1478 1480 1482 1484 1486 1487 1489 1490 1492 1493 1495 1496 1498 1499 1501 1502 1504 1505 1507 1508 1509 1510 1511 1512 1513 1513 1514 1515 1516 1517 1518 1519 1520 1521 1522 1523 1524 1525 1525 1526 1527 1527 1528 1528 1529 1529 1529 1530 1531 1532 1533 1533 1535 1535 1536 1538 1539 1540 1540 1540 1540 1540 1540 1541 1541 1541 1541 1540 1541 1541 1536 1533 1535 1536 1537 1538 1538 1539 1539 1540 1541 1541 1542 1542
1469 1471 1473 1475 1477 1478 1481 1483 1485 1487 1488 1490 1491 1493 1494 1496 1497 1499 1500 1501 1503 1504 1506 1507 1508 1509 1511 1512 1512 1513 1514 1515 1516 1517 1517 1519 1520 1521 1522 1523 1524 1525 1525 1526 1526 1527 1528 1528 1529 1529 1529 1530 1532 1533 1533 1534 1535 1535 1536 1539 1541 1541 1541 1540 1540 1540 1540 1541 1541 1541 1542 1540 1540 1537 1532 1532 1535 1535 1536 1536 1537 1537 1538 1538 1539 1539 1539 1539
1467 1469 1471 1473 1475 1477 1479 1482 1484 1486 1487 1489 1491 1492 1494 1495 1497 1498 1499 1501 1502 1504 1505 1506 1508 1509 1510 1511 1512 1513 1514 1514 1516 1517 1517 1519 1520 1521 1522 1523 1524 1525 1525 1526 1526 1527 1528 1528 1529 1529 1529 1530 1532 1533 1533 1534 1535 1536 1537 1539 1543 1545 1543 1539 1540 1540 1540 1541 1540 1542 1545 1540 1535 1533 1530 1532 1534 1534 1535 1535 1535 1536 1536 1537 1537 1537 1537 1537
1465 1467 1469 1471 1474 1476 1478 1480 1483 1485 1487 1489 1490 1492 1494 1495 1496 1498 1499 1500 1502 1503 1505 1506 1507 1509 1510 1511 1511 1512 1513 1514 1515 1516 1517 1519 1520 1521 1522 1523 1524 1524 1525 1525 1526 1527 1527 1528 1529 1529 1530 1530 1531 1532 1533 1535 1536 1537 1539 1540 1544 1548 1545 1539 1540 1540 1540 1542 1540 1542 1548 1540 1533 1532 1530 1530 1531 1532 1534 1534 1534 1535 1535 1535 1535 1535 1534 1535
1464 1465 1467 1470 1472 1474 1477 1479 1482 1484 1486 1488 1489 1491 1493 1494 1496 1497 1498 1500 1501 1503 1504 1506 1507 1509 1510 1510 1510 1511 1512 1513 1515 1516 1517 1518 1519 1520 1521 1522 1523 1524 1525 1525 1526 1527 1527 1528 1529 1529 1530 1531 1531 1533 1535 1537 1537 1538 1543 1546 1546 1547 1545 1540 1540 1540 1540 1541 1540 1542 1547 1541 1533 1531 1529 1530 1530 1531 1533 1533 1534 1533 1533 1533 1533 1533 1532 1532
1462 1463 1465 1467 1470 1473 1475 1478 1480 1483 1485 1487 1489 1490 1492 1494 1495 1496 1498 1499 1501 1503 1504 1506 1507 1508 1509 1509 1510 1510 1511 1513 1514 1516 1517 1518 1519 1520 1521 1522 1523 1524 1524 1525 1526 1527 1527 1528 1528 1529 1530 1531 1532 1534 1538 1542 1542 1540 1543 1547 1547 1546 1547 1544 1540 1539 1539 1540 1541 1542 1543 1540 1534 1530 1530 1531 1531 1531 1532 1532 1532 1532 1531 1531 1531 1530 1529 1530
1460 1461 1463 1466 1468 1471 1474 1477 1479 1482 1484 1486 1488 1489 1491 1493 1494 1496 1497 1499 1501 1502 1504 1505 1507 1508 1509 1508 1509 1509 1510 1512 1513 1515 1516 1518 1519 1520 1521 1522 1523 1524 1524 1525 1526 1526 1527 1528 1529 1530 1530 1531 1533 1535 1542 1549 1548 1544 1544 1546 1545 1545 1547 1545 1541 1539 1539 1540 1541 1541 1542 1539 1533 1530 1530 1531 1531 1531 1531 1530 1529 1529 1529 1528 1528 1527 1526 1527
1459 1459 1461 1464 1466 1469 1472 1475 1478 1481 1483 1485 1487 1489 1490 1492 1494 1495 1497 1498 1500 1502 1504 1505 1506 1509 1508 1506 1507 1508 1509 1511 1512 1514 1515 1517 1518 1519 1521 1521 1522 1523 1524 1525 1525 1526 1527 1528 1529 1531 1532 1533 1533 1536 1544 1548 1545 1543 1544 1545 1545 1544 1544 1543 1540 1538 1538 1540 1541 1542 1542 1538 1533 1531 1529 1529 1530 1529 1528 1528 1527 1526 1526 1525 1525 1524 1524 1524
1457 1458 1460 1462 1465 1468 1471 1474 1477 1480 1482 1484 1486 1487 1489 1491 1493 1495 1496 1497 1498 1500 1502 1502 1502 1505 1504 1502 1505 1506 1508 1510 1511 1513 1515 1516 1518 1519 1520 1521 1522 1523 1524 1525 1526 1526 1526 1528 1531 1534 1535 1534 1534 1535 1538 1539 1538 1539 1541 1543 1544 1543 1543 1541 1539 1538 1538 1540 1541 1541 1540 1537 1533 1531 1529 1527 1527 1526 1525 1525 1524 1523 1522 1522 1521 1520 1521 1521
1456 1457 1458 1461 1463 1466 1469 1473 1476 1478 1480 1482 1484 1486 1488 1490 1492 1495 1495 1495 1496 1497 1498 1498 1499 1501 1500 1500 1503 1505 1506 1509 1511 1512 1514 1515 1517 1519 1520 1521 1522 1523 1523 1524 1526 1526 1526 1530 1533 1533 1534 1532 1532 1533 1533 1534 1535 1537 1539 1541 1542 1542 1542 1541 1539 1538 1538 1539 1539 1538 1537 1535 1533 1531 1527 1525 1524 1523 1522 1521 1520 1519 1518 1518 1518 1517 1518 1517
1454 1455 1457 1459 1462 1465 1468 1471 1474 1477 1479 1481 1483 1484 1485 1486 1489 1492 1493 1495 1496 1496 1496 1497 1499 1500 1500 1500 1502 1503 1505 1508 1510 1511 1513 1515 1516 1518 1519 1520 1522 1523 1524 1524 1525 1525 1527 1532 1533 1530 1530 1530 1530 1530 1532 1533 1533 1535 1538 1540 1541 1542 1542 1541 1539 1539 1538 1540 1538 1537 1537 1532 1530 1529 1525 1523 1523 1518 1516 1517 1516 1514 1515 1515 1514 1514 1514 1514
1453 1454 1456 1458 1461 1464 1467 1470 1473 1475 1477 1479 1481 1482 1483 1484 1486 1488 1490 1494 1495 1495 1497 1497 1498 1499 1499 1501 1502 1503 1504 1506 1509 1511 1512 1514 1515 1517 1518 1520 1522 1523 1524 1524 1526 1529 1532 1533 1530 1527 1528 1529 1529 1530 1531 1532 1533 1536 1539 1541 1542 1542 1542 1542 1541 1539 1539 1540 1538 1537 1537 1529 1524 1526 1523 1520 1518 1513 1511 1512 1512 1511 1512 1512 1511 1511 1511 1511
1452 1453 1455 1457 1460 1463 1465 1468 1471 1473 1475 1477 1479 1481 1482 1484 1486 1488 1489 1492 1494 1495 1496 1497 1498 1498 1499 1501 1502 1503 1503 1505 1507 1509 1511 1513 1514 1516 1517 1519 1521 1523 1524 1524 1527 1532 1534 1531 1526 1526 1528 1527 1529 1530 1531 1533 1535 1537 1539 1542 1544 1543 1543 1543 1542 1540 1540 1540 1538 1538 1539 1530 1521 1520 1518 1514 1513 1509 1508 1509 1509 1509 1508 1507 1507 1508 1509 1509
1451 1453 1455 1457 1460 1462 1465 1468 1470 1472 1475 1476 1479 1480 1481 1483 1485 1487 1489 1491 1492 1493 1494 1496 1497 1498 1498 1500 1501 1502 1503 1504 1505 1506 1509 1511 1513 1515 1516 1518 1520 1523 1524 1524 1526 1529 1530 1527 1524 1526 1527 1526 1529 1531 1531 1534 1537 1539 1539 1541 1542 1541 1542 1543 1543 1541 1539 1541 1540 1539 1538 1528 1519 1518 1513 1509 1510 1509 1506 1506 1505 1504 1504 1504 1504 1505 1506 1506
1451 1453 1455 1457 1460 1462 1465 1468 1468 1472 1474 1475 1478 1479 1481 1483 1485 1487 1488 1491 1493 1493 1494 1495 1496 1496 1497 1498 1500 1501 1502 1503 1504 1506 1507 1509 1512 1514 1515 1517 1519 1523 1524 1524 1526 1528 1527 1525 1524 1525 1526 1527 1529 1531 1532 1534 1538 1541 1539 1538 1539 1538 1540 1542 1543 1542 1542 1544 1542 1542 1542 1531 1518 1517 1513 1508 1509 1508 1505 1505 1502 1500 1500 1502 1502 1502 1503 1503
1452 1453 1455 1457 1460 1462 1465 1467 1468 1472 1472 1475 1477 1478 1481 1482 1485 1486 1487 1495 1496 1492 1493 1494 1493 1494 1494 1496 1498 1500 1504 1504 1503 1505 1506 1509 1511 1512 1515 1516 1517 1521 1522 1523 1526 1526 1525 1525 1525 1526 1527 1528 1530 1532 1533 1534 1539 1543 1540 1538 1538 1538 1540 1541 1542 1544 1546 1547 1543 1544 1549 1542 1526 1517 1512 1508 1507 1507 1506 1504 1500 1498 1498 1499 1500 1500 1501 1501
1452 1454 1455 1458 1460 1462 1465 1466 1468 1470 1471 1475 1476 1478 1481 1481 1485 1485 1489 1505 1501 1486 1488 1492 1490 1490 1491 1494 1496 1499 1503 1502 1502 1505 1506 1509 1511 1511 1514 1516 1516 1519 1518 1522 1527 1526 1524 1525 1527 1527 1528 1530 1532 1533 1533 1533 1539 1542 1539 1538 1537 1537 1540 1542 1543 1546 1548 1548 1545 1544 1548 1548 1537 1521 1510 1507 1507 1507 1506 1503 1498 1496 1496 1497 1498 1498 1498 1499
1453 1454 1456 1458 1461 1463 1465 1466 1468 1469 1471 1474 1475 1479 1480 1481 1486 1483 1493 1510 1497 1478 1482 1487 1487 1489 1490 1493 1495 1496 1497 1497 1501 1505 1505 1508 1510 1510 1513 1514 1515 1517 1516 1521 1528 1527 1524 1525 1526 1526 1528 1531 1532 1532 1532 1532 1537 1540 1539 1538 1537 1538 1540 1542 1544 1547 1550 1550 1547 1545 1546 1547 1534 1515 1507 1509 1510 1507 1502 1499 1495 1493 1494 1494 1495 1496 1496 1498
1454 1455 1457 1459 1461 1463 1465 1466 1468 1469 1471 1473 1476 1479 1479 1482 1484 1483 1497 1504 1484 1473 1480 1482 1485 1488 1489 1492 1494 1494 1495 1496 1499 1502 1505 1507 1509 1509 1511 1513 1514 1515 1516 1518 1523 1525 1525 1525 1524 1525 1527 1529 1531 1533 1532 1531 1534 1537 1538 1538 1539 1541 1542 1544 1546 1547 1551 1550 1545 1543 1544 1542 1526 1507 1506 1511 1510 1505 1497 1494 1493 1491 1492 1492 1493 1494 1495 1496
1454 1455 1457 1459 1460 1463 1465 1466 1468 1469 1471 1473 1476 1478 1479 1482 1484 1491 1505 1496 1474 1474 1480 1480 1483 1485 1486 1491 1494 1494 1495 1497 1498 1500 1505 1507 1508 1509 1510 1512 1513 1515 1518 1519 1523 1526 1525 1525 1525 1525 1526 1527 1530 1533 1533 1532 1533 1535 1537 1538 1541 1544 1544 1547 1549 1550 1551 1546 1541 1539 1538 1539 1528 1509 1505 1506 1502 1497 1493 1492 1493 1490 1491 1491 1492 1493 1494 1495
1454 1456 1458 1459 1460 1463 1464 1466 1467 1469 1471 1472 1475 1477 1480 1483 1485 1496 1501 1482 1469 1477 1480 1480 1483 1482 1483 1487 1491 1494 1495 1498 1498 1499 1504 1506 1508 1509 1510 1513 1515 1519 1523 1522 1525 1528 1526 1526 1526 1525 1526 1527 1529 1532 1533 1533 1533 1535 1537 1539 1543 1547 1549 1551 1553 1555 1555 1545 1539 1539 1538 1541 1532 1512 1504 1500 1494 1493 1492 1491 1491 1490 1491 1492 1492 1493 1493 1494
1454 1456 1457 1459 1461 1463 1465 1466 1467 1468 1470 1472 1474 1476 1479 1486 1490 1491 1485 1472 1470 1475 1475 1478 1481 1481 1483 1484 1488 1492 1494 1497 1498 1498 1501 1505 1507 1508 1508 1510 1511 1520 1527 1526 1527 1529 1527 1526 1526 1526 1526 1526 1527 1532 1537 1537 1536 1537 1538 1541 1548 1554 1557 1556 1556 1559 1556 1546 1541 1542 1542 1540 1525 1506 1500 1496 1491 1492 1491 1490 1490 1491 1492 1492 1493 1493 1493 1494
1453 1455 1457 1459 1460 1463 1464 1466 1466 1468 1469 1471 1474 1475 1478 1489 1489 1480 1473 1469 1468 1468 1469 1473 1476 1479 1484 1486 1489 1491 1492 1496 1497 1498 1500 1502 1506 1507 1506 1506 1506 1510 1518 1523 1528 1530 1529 1529 1528 1527 1527 1525 1524 1529 1537 1538 1538 1538 1537 1540 1547 1557 1563 1560 1560 1561 1554 1544 1542 1543 1543 1534 1516 1501 1496 1492 1489 1489 1489 1490 1490 1490 1491 1492 1492 1493 1492 1493
1452 1453 1456 1457 1459 1462 1463 1465 1466 1467 1469 1470 1473 1475 1480 1486 1479 1469 1469 1468 1465 1466 1468 1471 1475 1481 1483 1484 1487 1488 1491 1496 1496 1497 1500 1503 1507 1508 1506 1506 1506 1506 1511 1521 1526 1528 1529 1528 1524 1523 1523 1522 1521 1523 1526 1530 1535 1536 1534 1537 1540 1544 1549 1551 1553 1552 1545 1542 1544 1545 1539 1525 1510 1499 1493 1491 1490 1489 1489 1489 1490 1489 1490 1491 1491 1491 1491 1491
1452 1453 1455 1456 1458 1459 1460 1463 1465 1466 1468 1469 1471 1476 1480 1478 1469 1464 1467 1466 1464 1467 1470 1471 1475 1482 1485 1485 1486 1485 1487 1494 1496 1497 1500 1501 1503 1504 1503 1503 1505 1505 1508 1516 1522 1524 1526 1521 1517 1517 1516 1516 1519 1520 1520 1525 1534 1537 1535 1537 1537 1532 1533 1540 1546 1544 1543 1545 1544 1541 1531 1514 1504 1496 1491 1492 1491 1489 1489 1489 1489 1489 1488 1490 1490 1489 1490 1490
1452 1453 1454 1455 1456 1458 1459 1461 1462 1465 1467 1467 1472 1475 1471 1465 1461 1460 1460 1461 1463 1466 1471 1476 1478 1483 1487 1486 1487 1486 1484 1489 1494 1497 1499 1500 1498 1499 1499 1497 1498 1500 1501 1506 1514 1519 1523 1521 1517 1517 1517 1516 1517 1518 1519 1521 1527 1534 1536 1533 1530 1528 1527 1534 1545 1547 1547 1546 1539 1532 1522 1508 1504 1496 1488 1491 1489 1487 1489 1488 1488 1488 1487 1489 1488 1487 1488 1489
1451 1452 1453 1454 1455 1457 1458 1460 1461 1464 1466 1467 1470 1468 1461 1458 1457 1457 1457 1458 1460 1462 1468 1476 1478 1480 1485 1486 1487 1486 1485 1487 1493 1496 1498 1500 1497 1494 1495 1493 1493 1495 1494 1497 1504 1506 1512 1519 1519 1518 1519 1518 1518 1518 1520 1519 1521 1528 1532 1526 1524 1530 1530 1531 1541 1547 1550 1549 1538 1528 1519 1511 1511 1501 1487 1489 1490 1488 1489 1488 1487 1486 1485 1487 1486 1485 1487 1488
1450 1451 1452 1452 1454 1455 1457 1460 1462 1463 1466 1468 1467 1462 1459 1459 1457 1457 1458 1458 1459 1460 1464 1471 1473 1474 1479 1483 1484 1484 1484 1487 1493 1494 1495 1498 1493 1485 1488 1491 1490 1491 1491 1494 1500 1499 1502 1512 1519 1521 1521 1519 1519 1520 1522 1521 1520 1521 1522 1521 1524 1532 1534 1534 1540 1542 1547 1550 1536 1522 1518 1512 1507 1498 1489 1489 1490 1487 1487 1486 1485 1484 1483 1483 1483 1484 1486 1486
1449 1450 1451 1450 1452 1454 1456 1459 1461 1461 1464 1468 1466 1461 1460 1459 1458 1459 1460 1459 1459 1460 1462 1465 1467 1471 1475 1476 1479 1483 1483 1484 1489 1492 1491 1494 1489 1480 1480 1484 1485 1487 1489 1492 1497 1497 1499 1506 1516 1522 1521 1520 1521 1521 1521 1521 1522 1521 1521 1523 1523 1526 1529 1531 1534 1534 1537 1543 1535 1522 1517 1504 1492 1489 1488 1487 1486 1483 1483 1482 1482 1481 1479 1480 1482 1483 1485 1486
1448 1449 1450 1449 1450 1453 1455 1458 1460 1461 1464 1466 1465 1463 1462 1460 1459 1460 1460 1460 1461 1461 1462 1461 1462 1467 1471 1473 1475 1478 1481 1482 1486 1488 1486 1487 1485 1479 1477 1478 1481 1483 1487 1491 1493 1495 1499 1502 1510 1521 1524 1522 1519 1515 1512 1514 1518 1520 1522 1524 1524 1525 1528 1528 1529 1528 1526 1532 1535 1530 1519 1496 1481 1482 1481 1479 1480 1478 1478 1479 1478 1478 1477 1479 1481 1482 1484 1486
1448 1449 1448 1447 1448 1450 1453 1457 1458 1460 1463 1465 1465 1464 1464 1462 1460 1460 1460 1461 1462 1463 1463 1463 1462 1463 1466 1470 1473 1474 1478 1481 1483 1485 1483 1482 1481 1477 1473 1473 1477 1481 1486 1493 1494 1493 1498 1501 1509 1522 1524 1518 1511 1507 1506 1507 1508 1510 1512 1515 1515 1518 1524 1528 1530 1528 1523 1524 1526 1529 1519 1490 1475 1478 1475 1473 1475 1473 1474 1476 1476 1476 1476 1478 1480 1482 1483 1485
1446 1447 1446 1446 1447 1448 1451 1455 1457 1459 1462 1463 1462 1462 1463 1463 1461 1461 1461 1462 1463 1464 1464 1464 1464 1463 1463 1465 1468 1470 1475 1479 1480 1482 1480 1477 1475 1472 1470 1470 1472 1476 1481 1488 1488 1486 1490 1498 1507 1515 1515 1510 1507 1506 1507 1506 1505 1507 1508 1508 1508 1511 1514 1519 1525 1524 1524 1522 1518 1524 1520 1487 1469 1475 1473 1471 1473 1470 1471 1474 1474 1475 1476 1478 1481 1481 1483 1484
1444 1444 1444 1444 1445 1446 1450 1455 1456 1459 1460 1459 1459 1460 1461 1462 1462 1462 1461 1462 1464 1464 1464 1464 1464 1464 1464 1464 1465 1467 1470 1473 1475 1476 1474 1473 1471 1468 1468 1469 1471 1474 1476 1481 1484 1484 1489 1495 1501 1507 1509 1508 1508 1507 1506 1506 1507 1509 1508 1507 1509 1511 1509 1511 1516 1517 1519 1518 1516 1526 1522 1489 1470 1474 1473 1471 1473 1470 1471 1473 1473 1476 1476 1478 1480 1480 1482 1483
1443 1444 1443 1444 1446 1446 1448 1451 1452 1456 1459 1459 1460 1461 1461 1462 1461 1461 1461 1462 1463 1464 1465 1465 1464 1465 1466 1466 1465 1466 1467 1468 1469 1470 1469 1471 1468 1466 1467 1468 1470 1472 1473 1475 1477 1481 1487 1493 1497 1504 1510 1510 1511 1512 1510 1509 1509 1508 1506 1506 1506 1506 1509 1512 1514 1516 1517 1512 1510 1519 1513 1486 1474 1475 1472 1472 1473 1471 1473 1474 1474 1476 1476 1476 1478 1479 1480 1481
1443 1444 1444 1444 1445 1446 1446 1446 1448 1452 1455 1457 1459 1459 1460 1461 1460 1459 1460 1461 1462 1463 1465 1464 1464 1465 1466 1468 1468 1467 1466 1466 1466 1466 1467 1467 1466 1465 1466 1467 1468 1468 1468 1469 1470 1473 1481 1485 1488 1497 1505 1506 1505 1504 1502 1503 1508 1507 1502 1501 1501 1502 1506 1508 1511 1518 1515 1505 1505 1510 1497 1479 1475 1476 1472 1472 1473 1472 1473 1474 1473 1474 1474 1475 1477 1478 1479 1481
1443 1444 1444 1443 1443 1442 1443 1444 1446 1448 1450 1453 1456 1456 1457 1459 1458 1458 1461 1462 1462 1462 1464 1464 1464 1465 1467 1469 1470 1469 1468 1467 1467 1467 1467 1466 1465 1466 1466 1465 1466 1466 1467 1468 1469 1472 1477 1479 1479 1482 1486 1485 1483 1483 1485 1491 1499 1500 1495 1495 1498 1500 1501 1503 1509 1511 1504 1499 1503 1500 1488 1479 1476 1477 1476 1473 1474 1475 1474 1474 1474 1474 1475 1476 1477 1478 1480 1481
1441 1442 1441 1442 1442 1441 1442 1443 1444 1445 1446 1448 1451 1451 1453 1456 1457 1458 1460 1460 1460 1461 1463 1464 1464 1466 1467 1468 1471 1471 1468 1468 1468 1468 1468 1467 1466 1467 1467 1466 1466 1466 1466 1467 1468 1471 1475 1477 1475 1475 1474 1472 1472 1475 1480 1483 1487 1488 1488 1491 1495 1497 1498 1501 1501 1494 1490 1498 1499 1488 1486 1485 1474 1473 1478 1474 1474 1477 1475 1475 1475 1474 1475 1476 1477 1478 1479 1479
1440 1439 1438 1439 1440 1439 1440 1440 1441 1443 1444 1445 1446 1446 1449 1453 1454 1456 1457 1458 1458 1460 1462 1464 1464 1463 1464 1465 1468 1470 1469 1469 1469 1468 1468 1468 1468 1468 1467 1467 1467 1466 1466 1467 1467 1469 1472 1473 1472 1474 1474 1472 1472 1476 1478 1479 1479 1480 1482 1485 1488 1492 1495 1494 1490 1482 1483 1493 1489 1477 1482 1481 1467 1468 1476 1472 1472 1475 1474 1474 1475 1475 1476 1476 1476 1477 1477 1477
1438 1438 1436 1437 1437 1437 1437 1437 1439 1441 1443 1444 1445 1445 1446 1449 1450 1450 1452 1456 1459 1458 1459 1461 1460 1459 1461 1462 1466 1469 1469 1468 1468 1467 1467 1468 1468 1469 1467 1467 1468 1467 1466 1467 1468 1469 1470 1470 1470 1473 1474 1473 1473 1476 1477 1478 1479 1479 1480 1482 1483 1486 1487 1483 1479 1476 1478 1484 1480 1473 1476 1472 1462 1466 1472 1469 1469 1472 1473 1474 1474 1473 1475 1475 1476 1476 1475 1474
1436 1437 1436 1436 1436 1436 1437 1437 1438 1440 1442 1444 1444 1443 1443 1445 1446 1447 1448 1452 1456 1456 1456 1456 1455 1456 1458 1460 1463 1465 1464 1463 1463 1464 1466 1468 1468 1469 1468 1467 1468 1468 1468 1469 1470 1470 1470 1471 1472 1473 1474 1473 1471 1475 1478 1479 1480 1480 1480 1481 1480 1481 1481 1479 1477 1476 1479 1481 1477 1475 1476 1468 1459 1464 1469 1467 1468 1470 1470 1472 1471 1470 1471 1472 1473 1473 1471 1471
1435 1436 1436 1436 1436 1436 1436 1437 1437 1439 1441 1441 1440 1439 1440 1441 1443 1445 1446 1447 1449 1451 1452 1451 1451 1455 1457 1460 1462 1460 1458 1458 1459 1459 1462 1465 1466 1466 1467 1468 1469 1470 1470 1470 1471 1471 1471 1474 1475 1475 1477 1473 1469 1475 1480 1479 1480 1483 1480 1476 1475 1476 1478 1478 1477 1476 1475 1475 1475 1479 1478 1464 1455 1461 1466 1464 1465 1468 1467 1466 1466 1467 1467 1469 1470 1468 1466 1467
1433 1435 1435 1437 1437 1435 1435 1436 1437 1437 1437 1436 1435 1435 1437 1439 1440 1443 1446 1446 1444 1445 1446 1447 1449 1454 1457 1458 1457 1452 1451 1454 1455 1455 1458 1461 1463 1464 1465 1467 1468 1470 1472 1473 1474 1474 1474 1476 1477 1478 1479 1473 1468 1475 1480 1480 1484 1482 1470 1462 1464 1469 1473 1474 1473 1470 1468 1470 1475 1476 1469 1456 1453 1461 1464 1461 1462 1465 1463 1460 1460 1462 1464 1466 1466 1463 1461 1463